Weather in Podgornaya

Russia / Krasnodar Krai     44°13′06″N   41°17′23″E
temp.,
°C
wind,
m/s
gust,
m/s
humid.,
%
clouds,
%
prec.,
mm/h
press.,
hPa
HPBL,
m
21 april, wed
wed2100:00+10e2487100 0.0 1013293
03:00+8ene229058 1.1 101412
06:00+8ene2392100 3.5 1016292
09:00+8e2491100 4.2 1018504
12:00+8ne2397100 1.3 1020389
15:00+8e2296100 1.6 1020260
18:00+8ese2393100 0.0 1021243
21:00+7se2493100 0.0 1022199
22 april, thu
thu2200:00+7se1192100 0.0 102112
03:00+6s1193100 0.0 102110
06:00+7wnw1192100 0.0 102213
09:00+10n118361 0.1 1021481
12:00+12nne3377100 0.1 1020868
15:00+10ene2489100 1.2 1021376
18:00+10e2390100 1.1 1021138
21:00+8ssw3595100 11.3 1023218
23 april, fri
fri2300:00+8wsw2495100 2.8 1023246
03:00+6w249523 3.0 102388
06:00+6wsw22955 0.1 102531
09:00+11nw22723 0.1 1024755
12:00+13nnw335882 0.1 10221563
15:00+13n326289 0.1 10211019
18:00+12ne237169 0.0 1020250
21:00+8ese2281100 0.0 102124
24 april, sat
sat2400:00+9sse1176100 0.0 101911
03:00+8wsw2281100 0.1 101935
06:00+8wsw229085 0.0 102086
09:00+11n117179 0.0 1019690
12:00+15nnw446168 0.1 10181324
15:00+15nnw445265 0.3 10181578
18:00+12n4671100 0.0 1019343
21:00+10wnw2574100 0.0 1021190
25 april, sun
sun2500:00+8w2282100 0.0 102120
03:00+8nnw1293100 0.0 1021257
06:00+7nne2294100 0.1 1021239
09:00+7ene2393100 0.9 1020350
12:00+7ene2394100 0.5 1020379
15:00+6ne2396100 2.4 1019349
18:00+6ene2397100 0.3 1018419
21:00+6e2498100 0.3 1018359